Location: Krakow
(50.0830°N, 19.9170°E)
Time: 07:58:46
(UTC+02:00)

A-11 Canister half - Pass Details

Date: 22 March 2026
Orbit: 1523 x 1684 km, 47.3° (Epoch: 18 April)

Event Time Altitude Azimuth Distance (km) Brightness Sun altitude
Rises 14:46:22 0° 288° (WNW) 4,792 12.1 27.8°
Reaches altitude 10° 14:50:32 10° 273° (W) 3,775 11.9 27.2°
Maximum altitude 14:56:50 20° 231° (SW) 3,003 13.3 26.4°
Drops below altitude 10° 15:03:02 10° 188° (S) 3,697 11.7 25.6°
Sets 15:07:05 0° 173° (S) 4,664 11.9 25.0°
